SL-19 R/B, 23440

Orbit data source: Space-Track

SL-19 R/B, 23440 is space debris in LEO originally from a launch on Mon, 26 Dec 1994 UTC launched from the Tyuratam Missile And Space Complex (TTMTR). Debris objects in space refer to the collection of defunct objects orbiting the Earth. Examples of debris include non-operational satellites, rocket bodies, and fragments generated from explosions, collisions, or faulty payload assembly.

Loading next visibility...
Identifier
23440, 1994-085B
Orbit
LEO
Last TLE update
8 hours ago
Origin
Manufacturer
Khrunichev
Mission
Spacecraft
Bus & Motor
BRIZ, Unknown motor
Mass
~1,700 kg wet, ~1,700 kg dry
Launch date (UTC)
1994-12-26 (30 years ago)
Launch vehicle
Unknown
Launch site
Tyuratam Missile And Space Complex (TTMTR)
Object type
Payload
Rocket body
Debris
Shape & HBR
Hex Cyl + 1 Rod, 2.5 m
Radar Cross Section
5.049 m², Large (>1 m²)

Expand to show TLE details & history

TLE from 8 hours ago
0 SL-19 R/B
1 23440U 94085B   25128.95386631 -.00000064  00000-0 -61674-3 0  9997
2 23440  64.8332 261.3848 0168788  57.2432  78.7170 11.27133472250282
Epoch: 2025-05-08T22:53Z
Definitive object data (Epoch: 2025-05-08T22:53:34.049Z)
Latitude
37.46995°
Longitude
-150.03059°
Altitude
2,003.168 km
Speed
6.911 km/s
True Right ascension
04h 01m 30s
True Declination
37° 19' 43"
Sunlit
Object was in daylight at TLE epoch
Visualization TLE readout
Latitude
64.62482°
Longitude
130.81714°
Altitude
1,909.826 km
Speed
6.994 km/s
Apparent Right ascension
01h 24m 24s
Apparent Declination
25° 39' 36"
Sunlit
Object is in daylight
Visualization observer readout
Local Sidereal Time
15:15:28
Azimuth
26.453° NE
Elevation
-19.505°
Doppler factor
1
Orbital elements
Apogee altitude
2,165.165 km
Perigee altitude
1,881.55 km
Semi-major axis
8,401.495 km
Eccentricity
0.0168788
Inclination
64.8332°
RAAN
261.3848°
Arg. of periapsis
57.2432°
True anomaly
80.6213°
Mean anomaly
78.717°
Eccentric anomaly
79.6684°
Mean motion
2.81844 °/min
BSTAR
-0.00061674
Orbital period
127.73 mins
Loading maneuver chart data...
Loading SW <> Apogee altitude chart data...
Loading historical data...
Loading historical data...
Loading historical data...
Loading historical data...
Loading historical data...
Loading historical data...
Loading historical data...

SL-19 R/B Visibility forecast

Observer location: undefined°, undefined°

Span
Click to sort rows by Start time (UTC) header in descending order
Start Az.
Max El. time (UTC)
Max El. Az.
Max El.
End time (UTC)
End Az.
16 mins2025-05-09 08:49:31.490Z155.552° SSE2025-05-09 08:57:31.490Z104.51° ESE25.614°2025-05-09 09:05:31.490Z52.626° ENE
20 mins2025-05-09 10:59:31.490Z220.58° SW2025-05-09 11:08:31.490Z288.636° WNW43.771°2025-05-09 11:19:31.490Z30.036° NE
15 mins2025-05-09 13:16:31.490Z285.584° WNW2025-05-09 13:23:31.490Z332.26° NNW23.412°2025-05-09 13:31:31.490Z23.158° NE
13 mins2025-05-09 15:35:31.490Z332.939° NNW2025-05-09 15:41:31.490Z9.662° NNE17.742°2025-05-09 15:48:31.490Z50.093° ENE
19 mins2025-05-09 17:49:31.490Z338.906° N2025-05-09 17:58:31.490Z46.241° ENE32.8°2025-05-09 18:08:31.490Z108.727° ESE
21 mins2025-05-09 20:01:31.490Z322.376° NNW2025-05-09 20:11:31.490Z237.461° WSW42.542°2025-05-09 20:22:31.490Z166.334° S
7 mins2025-05-09 22:18:31.490Z280.18° WNW2025-05-09 22:21:31.490Z263.858° W12.343°2025-05-09 22:25:31.490Z242.772° WSW
|